Regional Weather Roundup
Issued by NWS

Home | Current Version | Previous Version | Graphics & Text | Print | Product List | Glossary On
Versions: 1 2 3 4 5 6 7 8 9 10 11 12 13 14 15 16 17 18 19 20 21 22 23 24 25 26 27 28 29 30 31 32 33 34 35 36 37 38 39 40 41 42 43 44 45 46 47 48 49 50
373
ASUS43 KLOT 252212
RWRIL

ILLINOIS REGIONAL WEATHER ROUNDUP
NATIONAL WEATHER SERVICE CHICAGO/ROMEOVILLE IL
400 PM CST SAT FEB 25 2017

NOTE: "FAIR" INDICATES FEW OR NO CLOUDS BELOW 12,000 FEET WITH NO
SIGNIFICANT WEATHER AND/OR OBSTRUCTIONS TO VISIBILITY.

* THESE STATIONS ARE NOT UNDER NWS QUALITY CONTROL. THEY ALSO MAY NOT
  REPORT WEATHER SUCH AS PRECIPITATION OR FOG.

ILZ001-002-007-009-015-016-024-252300-
NORTHWEST ILLINOIS

CITY           SKY/WX    TMP DP  RH WIND       PRES   REMARKS
MOLINE         MOSUNNY   33  16  49 NW17      30.02R WCI  22
STERLING*      SUNNY     31  17  56 W17       29.99R WCI  19
$$

ILZ003-004-008-010-011-017-018-252300-
NORTH CENTRAL ILLINOIS

CITY           SKY/WX    TMP DP  RH WIND       PRES   REMARKS
ROCKFORD       MOSUNNY   27  14  58 NW17G29   29.97R WCI  14
FREEPORT*      SUNNY     26  15  62 NW20      29.97R WCI  12
ROCHELLE*      PTSUNNY   28  17  63 W22       29.96R WCI  14
DE KALB*       PTSUNNY   28  18  68 W17G23    29.94R WCI  15
PERU*          PTSUNNY   29  17  62 W17G25    29.99S WCI  17
$$

ILZ005-006-012>014-019>023-252300-
NORTHEAST ILLINOIS

CITY           SKY/WX    TMP DP  RH WIND       PRES   REMARKS
CHICAGO-OHARE  FLURRIES  27  14  58 W21G26    29.93R WCI  13
CHICAGO-MIDWAY FLURRIES  27  13  55 W17G25    29.95R WCI  14
AURORA         CLOUDY    28  17  63 W20       29.95R WCI  15
LANSING*       CLOUDY    28  18  65 W21G26    29.94R WCI  15
JOLIET*        CLOUDY    29  18  63 W15G22    29.97R WCI  18
WAUKEGAN       CLOUDY    24  14  65 NW10G18   29.90R WCI  14
DUPAGE AIRPORT CLOUDY    27  14  58 W16       29.94R WCI  15
KANKAKEE*      CLOUDY    29  16  57 W15G29    29.97R WCI  18
WHEELING       CLOUDY    25  12  58 W17       29.94R WCI  12
MORRIS*        CLOUDY    28  17  63 W21G28    29.96S WCI  15
ROMEOVILLE*    CLOUDY    27  19  72 W21G28    29.96R WCI  13
NORTHERLY ISL    N/A     26  14  60 W13         N/A  WCI  15
$$

LMZ740>746-252300-
SOUTHERN LAKE MICHIGAN

STATION/POSITION SKY/WX   TEMP    WIND        PRES    VSBY  WAVE
                          AIR SEA DIR/SP/G                  HT/PER
                          (F)     (DEG/KT/KT) (MB)    (MI)  (FT/S)
HARRISON CRIB              26     270/ 20/ 23   N/A
BURNHAM HARBOR             26     250/ 16/ 18   N/A
CALUMET HARBOR             27     270/ 12/ 18 1013.3R
BURNS HARBOR               28     290/ 16/ 21 1013.9R
MICHIGAN CITY              26     250/ 23/ 26   N/A
$$

ILZ025>027-034>036-040-047-049-050-058-095>099-252300-
WEST-CENTRAL ILLINOIS

CITY           SKY/WX    TMP DP  RH WIND       PRES   REMARKS
QUINCY         MOSUNNY   35  11  36 NW13      30.07S WCI  26
GALESBURG*     CLOUDY    30  18  60 NW13G20   30.04R WCI  20
MACOMB*        SUNNY     33  15  48 W20       30.08R WCI  21
JACKSONVILLE*  MOSUNNY   34  13  42 W13G21    30.07S WCI  25
PITTSFIELD*    MOSUNNY   36  12  38 NW10      30.09R WCI  28
$$

ILZ028>032-037-038-041>044-048-051>054-059>061-252300-
CENTRAL ILLINOIS

CITY           SKY/WX    TMP DP  RH WIND       PRES   REMARKS
PONTIAC        PTSUNNY   32  18  55 W25       29.99R WCI  18
BLOOMINGTON    MOSUNNY   32  18  56 W15G23    30.01R WCI  22
DECATUR        SUNNY     35  13  40 W15G26    30.04R WCI  25
PEORIA         MOSUNNY   31  15  52 W14       30.03R WCI  21
LACON*         SUNNY     31  17  54 W15G22    30.00S WCI  20
LINCOLN*       MOSUNNY   34  15  46 W8G20     30.04S WCI  27
SPRINGFIELD    MOSUNNY   36  14  40 NW18      30.06R WCI  26
TAYLORVILLE    SUNNY     34  13  42 W14G24    30.06R WCI  25
$$

ILZ033-039-045-046-055>057-062-063-252300-
EAST-CENTRAL ILLINOIS

CITY           SKY/WX    TMP DP  RH WIND       PRES   REMARKS
CHAMPAIGN      MOSUNNY   34  13  41 W20G30    30.01R WCI  23
RANTOUL*       PTSUNNY   33  19  58 W18       30.00R WCI  21
MATTOON        SUNNY     35  14  42 W21       30.02R WCI  24
PARIS*         SUNNY     35  16  45 W17G25    30.02S WCI  25
$$

ILZ079-100>102-252300-
SOUTHWEST ILLINOIS

CITY           SKY/WX    TMP DP  RH WIND       PRES   REMARKS
ALTON          MOSUNNY   37  12  35 W10G26    30.09R WCI  30
BELLEVILLE     SUNNY     40  11  30 W14G21    30.08R
CAHOKIA*       SUNNY     41  11  29 W12       30.10R
SPARTA*        SUNNY     41  14  33 NW9G18    30.10R
$$

ILZ064>066-069>071-074>076-080>082-084>086-088>090-092>094-252300-
SOUTH-CENTRAL ILLINOIS

CITY           SKY/WX    TMP DP  RH WIND       PRES   REMARKS
CARBONDALE     SUNNY     41  14  33 NW12      30.10R
CAIRO*         SUNNY     44  17  34 W13       30.10S
EFFINGHAM*     MOSUNNY  N/A N/A N/A W18       30.07R
MARION         SUNNY     45  14  29 NW17      30.10R
MT. VERNON     SUNNY     39  15  37 W10G18    30.08R WCI  32
CENTRALIA*     SUNNY     39  18  43 W15G24    30.07S WCI  30
SALEM*         MOSUNNY   39  16  38 NW15G25   30.08R WCI  31
METROPOLIS*    SUNNY     44  16  33 CALM      30.10R
$$

ILZ067-068-072-073-078-083-087-091-252300-
SOUTHEAST ILLINOIS

CITY           SKY/WX    TMP DP  RH WIND       PRES   REMARKS
LAWRENCEVILLE  PTSUNNY   38  18  44 W17G26    30.06R WCI  28
FLORA*         MOSUNNY   39  17  41 W14G24    30.07S WCI  31
FAIRFIELD*     SUNNY     39  17  41 W6        30.07R WCI  35
HARRISBURG*    SUNNY     41  19  41 NW14G20   30.09R
ROBINSON*      MOSUNNY   34  18  50 W18       30.06R WCI  23
CARMI*         SUNNY     39  18  43 W18G25    30.07S WCI  30
$$

ABBREVIATIONS USED IN REMARKS
   TC - TEMPERATURE IN CELSIUS
  WCI - WIND CHILL INDEX
   HX - HEAT INDEX
  VSB - VISIBILITY
$$





USA.gov is the U.S. government's official web portal to all federal, state and local government web resources and services.